sat.trackr.live / text

‹ back to catalog

CARTOSAT-3

NORAD 44804 · 2019-081A

PAYLOAD ACTIVE UNKNOWN

§ Identity

Operator
Country
IND
Launch date
2019-11-27
Launch site
SRILR
Launch vehicle
Mass (kg)
RCS (m²)

Purposes: earth_obs

External: N2YO · Heavens-Above · Gunter

§ Orbital elements

Epoch: 2026-09-09T04:46:31.764864Z

Period
94.79 min
Inclination
97.4228°
Eccentricity
0.0010586
Mean motion
15.19184608 rev/d
Perigee alt
501.0 km
Apogee alt
515.6 km
Semi-major
6,886.4 km
B*
-5.7971e-5
RAAN
312.6750°
Arg perigee
215.1782°
Mean anomaly
144.8755°
Rev number
37,622

§ Raw data

CARTOSAT-31 44804U 19081A   26252.19897876 -.00001288  00000+0 -57971-4 0  99942 44804  97.4228 312.6750 0010586 215.1782 144.8755 15.19184608376221

JSON: /api/v1/satellites/44804 · /tle

For live sub-satellite position, see the globe view (requires WebGL).

§ Visibility from observer

Set your observer location to see the next 7 days of passes ≥ 10°. The values pass through the URL so the page stays shareable.

No JS? Fill the form by hand. The geolocation button needs JavaScript.

§ Radio — SatNOGS DB

ModeDescriptionDownlinkUplink
CW Beacon 2.225 GHz
BPSK Beacon sideband 2.225 GHz

2 transmitters · refreshed weekly from db.satnogs.org